CW9825 Weather Reports


time (UTC)temp
F
wind
direction
speed
knots
gust
knots
rain 1hr
in
rain 24hr
in
rain mn
in
humidity
%
barometer
mb
20260903121547 69 73 3.5 8.7 0.00 0.00 0.00 79 1008.3
20260903121046 68 26 3.5 8.7 0.00 0.00 0.00 79 1008.5
20260903120545 68 75 3.5 7.8 0.00 0.00 0.00 79 1008.5
20260903120055 68 86 4.3 7.8 0.00 0.00 0.00 78 1008.4
20260903115543 69 98 4.3 7.8 0.00 0.00 0.00 78 1008.4
20260903115043 69 95 3.5 7.0 0.00 0.00 0.00 78 1008.6
20260903114543 69 96 1.7 7.0 0.00 0.00 0.00 78 1008.6
20260903114042 69 92 3.5 7.0 0.00 0.00 0.00 78 1008.7
20260903113545 69 102 3.5 7.0 0.00 0.00 0.00 77 1008.7
20260903113047 69 98 3.5 7.8 0.00 0.00 0.00 77 1008.8
20260903112543 69 126 2.6 7.0 0.00 0.00 0.00 77 1008.8
20260903112041 69 92 2.6 7.0 0.00 0.00 0.00 77 1008.8
20260903111540 69 111 4.3 7.0 0.00 0.00 0.00 77 1008.9
20260903111039 69 56 2.6 6.1 0.00 0.00 0.00 77 1009.0
20260903110538 69 97 2.6 6.1 0.00 0.00 0.00 77 1009.2
20260903110038 69 98 2.6 6.1 0.00 0.00 0.00 77 1009.2
20260903105541 68 96 2.6 5.2 0.00 0.00 0.00 77 1009.2
20260903105039 68 94 1.7 4.3 0.00 0.00 0.00 77 1009.1
20260903104539 68 79 1.7 5.2 0.00 0.00 0.00 77 1009.1
20260903104037 68 50 1.7 5.2 0.00 0.00 0.00 77 1009.0
20260903103537 68 74 2.6 5.2 0.00 0.00 0.00 78 1009.1
20260903103036 68 78 1.7 5.2 0.00 0.00 0.00 78 1009.2
20260903102536 68 63 2.6 5.2 0.00 0.00 0.00 78 1009.2
20260903102035 68 51 2.6 5.2 0.00 0.00 0.00 78 1009.3
20260903101544 67 92 1.7 5.2 0.00 0.00 0.00 78 1009.4
20260903101035 67 79 0.9 3.5 0.00 0.00 0.00 78 1009.4
20260903100535 67 81 1.7 4.3 0.00 0.00 0.00 78 1009.3
20260903100036 67 71 1.7 4.3 0.00 0.00 0.00 78 1009.2
20260903095534 67 82 1.7 3.5 0.00 0.00 0.00 78 1009.3
20260903095033 67 68 1.7 4.3 0.00 0.00 0.00 78 1009.3
20260903094533 67 60 1.7 4.3 0.00 0.00 0.00 78 1009.4
20260903094034 67 66 1.7 3.5 0.00 0.00 0.00 78 1009.5
20260903093532 67 57 0.9 3.5 0.00 0.00 0.00 78 1009.6
20260903093040 67 56 0.9 3.5 0.00 0.00 0.00 78 1009.7
20260903092531 67 58 0.9 3.5 0.00 0.00 0.00 78 1009.7
20260903092031 67 59 1.7 4.3 0.00 0.00 0.00 78 1009.7
20260903091530 67 53 0.9 2.6 0.00 0.00 0.00 78 1009.7
20260903091036 67 51 0.0 2.6 0.00 0.00 0.00 79 1009.7
20260903090531 67 51 0.9 2.6 0.00 0.00 0.00 78 1009.7
20260903090033 66 42 0.0 3.5 0.00 0.00 0.00 79 1009.8
20260903085529 66 63 1.7 3.5 0.00 0.00 0.00 79 1009.7
20260903085029 66 76 1.7 3.5 0.00 0.00 0.00 79 1009.7
20260903084533 67 107 1.7 3.5 0.00 0.00 0.00 79 1009.7
20260903084028 67 65 1.7 3.5 0.00 0.00 0.00 79 1009.8
20260903083528 67 80 1.7 3.5 0.00 0.00 0.00 79 1010.0
20260903083028 67 80 1.7 3.5 0.00 0.00 0.00 79 1009.9
20260903082526 67 69 1.7 3.5 0.00 0.00 0.00 79 1010.0
20260903082026 67 64 1.7 4.3 0.00 0.00 0.00 79 1010.1
20260903081526 67 55 1.7 4.3 0.00 0.00 0.00 79 1010.0
20260903081024 67 71 1.7 5.2 0.00 0.00 0.00 79 1010.1
20260903080524 66 96 2.6 3.5 0.00 0.00 0.00 80 1010.2
20260903080037 67 71 0.9 2.6 0.00 0.00 0.00 79 1010.3
20260903075522 67 64 0.9 2.6 0.00 0.00 0.00 79 1010.4
20260903075022 67 63 0.9 2.6 0.00 0.00 0.00 79 1010.5
20260903074521 67 64 0.9 3.5 0.00 0.00 0.00 79 1010.5
20260903074021 67 63 0.9 5.2 0.00 0.00 0.00 79 1010.5
20260903073520 67 103 1.7 5.2 0.00 0.00 0.00 79 1010.5
20260903073024 67 63 1.7 3.5 0.00 0.00 0.00 79 1010.5
20260903072520 67 57 1.7 5.2 0.00 0.00 0.00 79 1010.4
20260903072021 67 95 1.7 3.5 0.00 0.00 0.00 79 1010.4
20260903071520 67 86 1.7 4.3 0.00 0.00 0.00 79 1010.3
20260903071023 67 72 1.7 4.3 0.00 0.00 0.00 79 1010.5
20260903070517 67 81 1.7 3.5 0.00 0.00 0.00 79 1010.5
20260903070019 67 63 0.9 3.5 0.00 0.00 0.00 79 1010.6
20260903065517 67 60 1.7 3.5 0.00 0.00 0.00 79 1010.7
20260903065017 67 96 1.7 4.3 0.00 0.00 0.00 79 1010.6
20260903064517 67 68 2.6 4.3 0.00 0.00 0.00 79 1010.7
20260903064016 67 92 1.7 3.5 0.00 0.00 0.00 79 1010.7
20260903063515 67 77 0.9 3.5 0.00 0.00 0.00 79 1010.9
20260903063015 67 81 1.7 3.5 0.00 0.00 0.00 79 1011.0
20260903062515 67 84 0.9 3.5 0.00 0.00 0.00 79 1011.1
20260903062015 67 86 0.9 3.5 0.00 0.00 0.00 79 1011.1
20260903061516 67 87 1.7 3.5 0.00 0.00 0.00 79 1011.1
20260903061116 67 87 1.7 3.5 0.00 0.00 0.00 79 1011.2
20260903060513 67 72 0.9 5.2 0.00 0.00 0.00 79 1011.1
20260903060012 67 77 0.9 5.2 0.00 0.00 0.00 78 1011.1
20260903055512 67 91 1.7 5.2 0.00 0.00 0.00 78 1011.0
20260903055010 68 58 1.7 4.3 0.00 0.00 0.00 78 1011.0
20260903054512 68 68 2.6 5.2 0.00 0.00 0.00 77 1011.0
20260903054009 68 83 1.7 5.2 0.00 0.00 0.00 77 1010.9
20260903053509 68 88 1.7 5.2 0.00 0.00 0.00 76 1010.9
20260903053007 68 81 2.6 5.2 0.00 0.00 0.00 76 1011.0
20260903052506 68 71 1.7 4.3 0.00 0.00 0.00 75 1011.1
20260903052007 69 78 2.6 4.3 0.00 0.00 0.00 74 1011.2
20260903051507 69 74 1.7 4.3 0.00 0.00 0.00 74 1011.3
20260903051004 69 52 1.7 3.5 0.00 0.00 0.00 74 1011.3
20260903050602 69 88 0.9 3.5 0.00 0.00 0.00 73 1011.2
20260903050005 69 71 1.7 3.5 0.00 0.00 0.00 72 1011.3
20260903045502 69 48 0.9 3.5 0.00 0.00 0.00 72 1011.4
20260903045002 69 42 0.9 3.5 0.00 0.00 0.00 71 1011.3
20260903044505 70 65 0.9 3.5 0.00 0.00 0.00 71 1011.4
20260903044001 70 32 0.9 3.5 0.00 0.00 0.00 70 1011.4
20260903043501 70 49 0.9 3.5 0.00 0.00 0.00 70 1011.5
20260903043001 70 59 0.9 3.5 0.00 0.00 0.00 69 1011.5
20260903042500 70 47 0.9 3.5 0.00 0.00 0.00 69 1011.5
20260903042002 71 44 0.9 3.5 0.00 0.00 0.00 68 1011.5
20260903041612 71 37 0.0 2.6 0.00 0.00 0.00 68 1011.4
20260903041100 71 38 0.0 3.5 0.00 0.00 0.00 67 1011.4
20260903040600 71 35 1.7 3.5 0.00 0.00 0.00 67 1011.5
20260903040120 72 47 0.9 4.3 0.00 0.00 0.00 66 1011.5
20260903035559 72 51 1.7 4.3 0.00 0.00 0.00 66 1011.5
20260903035059 72 10 0.9 2.6 0.00 0.00 0.00 66 1011.6
20260903034603 72 10 0.9 3.5 0.00 0.00 0.00 65 1011.7
20260903034102 72 43 0.9 3.5 0.00 0.00 0.00 65 1011.8
20260903033559 73 45 0.9 3.5 0.00 0.00 0.00 65 1011.8
20260903033059 73 96 1.7 4.3 0.00 0.00 0.00 63 1011.9
20260903032559 73 78 1.7 4.3 0.00 0.00 0.00 63 1011.8
20260903032058 73 103 1.7 5.2 0.00 0.00 0.00 62 1011.9
20260903031601 73 85 1.7 4.3 0.00 0.00 0.00 63 1011.8
20260903031101 73 99 1.7 4.3 0.00 0.00 0.00 62 1011.9
20260903030558 74 63 1.7 4.3 0.00 0.00 0.00 62 1011.9
20260903030100 74 56 1.7 4.3 0.00 0.00 0.00 62 1011.9
20260903025557 74 65 1.7 4.3 0.00 0.00 0.00 62 1011.9
20260903025057 74 42 1.7 3.5 0.00 0.00 0.00 62 1011.9
20260903024558 74 64 1.7 3.5 0.00 0.00 0.00 62 1011.8
20260903024057 74 96 1.7 3.5 0.00 0.00 0.00 62 1011.9
20260903023557 75 99 1.7 5.2 0.00 0.00 0.00 61 1011.9
20260903023101 75 58 1.7 5.2 0.00 0.00 0.00 61 1011.9
20260903022601 75 69 2.6 4.3 0.00 0.00 0.00 61 1011.8
20260903022057 75 67 1.7 5.2 0.00 0.00 0.00 61 1011.9
20260903021559 75 97 1.7 4.3 0.00 0.00 0.00 60 1011.9
20260903021057 76 72 1.7 4.3 0.00 0.00 0.00 60 1011.8
20260903020556 76 65 1.7 4.3 0.00 0.00 0.00 60 1011.7
20260903020056 76 101 1.7 4.3 0.00 0.00 0.00 59 1011.5
20260903015556 76 90 2.6 4.3 0.00 0.00 0.00 59 1011.5
20260903015056 77 82 2.6 4.3 0.00 0.00 0.00 58 1011.5
20260903014556 77 55 0.9 4.3 0.00 0.00 0.00 57 1011.6
20260903014056 77 67 1.7 3.5 0.00 0.00 0.00 57 1011.5
20260903013556 77 64 0.9 4.3 0.00 0.00 0.00 57 1011.5
20260903013056 77 80 0.9 4.3 0.00 0.00 0.00 56 1011.5
20260903012555 78 84 1.7 5.2 0.00 0.00 0.00 57 1011.5
20260903012057 78 86 2.6 5.2 0.00 0.00 0.00 57 1011.4
20260903011556 78 82 1.7 5.2 0.00 0.00 0.00 57 1011.3
20260903011058 78 92 1.7 5.2 0.00 0.00 0.00 56 1011.3
20260903010554 78 86 1.7 4.3 0.00 0.00 0.00 55 1011.3
20260903010054 79 55 2.6 4.3 0.00 0.00 0.00 55 1011.4
20260903005554 79 83 1.7 5.2 0.00 0.00 0.00 55 1011.3
20260903005057 79 65 1.7 5.2 0.00 0.00 0.00 55 1011.2
20260903004557 79 67 1.7 5.2 0.00 0.00 0.00 54 1011.2
20260903004054 79 99 1.7 3.5 0.00 0.00 0.00 54 1011.2
20260903003554 79 120 2.6 4.3 0.00 0.00 0.00 54 1011.2
20260903003053 79 87 1.7 6.1 0.00 0.00 0.00 53 1011.1
20260903002554 80 20 2.6 6.1 0.00 0.00 0.00 53 1011.1
20260903002054 80 64 1.7 7.0 0.00 0.00 0.00 53 1011.1
20260903001603 80 56 3.5 7.0 0.00 0.00 0.00 53 1011.1
20260903001053 80 105 3.5 7.0 0.00 0.00 0.00 53 1011.2
20260903000553 80 115 3.5 7.0 0.00 0.00 0.00 52 1011.1
20260903000052 81 64 2.6 7.0 0.00 0.00 0.00 52 1011.1
20260902235552 81 101 3.5 7.0 0.00 0.00 0.00 52 1011.1
20260902235051 81 95 4.3 6.1 0.00 0.00 0.00 51 1011.2
20260902234551 81 98 2.6 6.1 0.00 0.00 0.00 50 1011.2
20260902234053 81 100 3.5 7.8 0.00 0.00 0.00 50 1011.1
20260902233551 81 105 3.5 7.8 0.00 0.00 0.00 50 1011.2
20260902233051 82 94 2.6 7.8 0.00 0.00 0.00 50 1011.2
20260902232550 82 80 2.6 7.8 0.00 0.00 0.00 49 1011.2
20260902232050 82 105 2.6 7.0 0.00 0.00 0.00 48 1011.2
20260902231550 82 82 2.6 6.1 0.00 0.00 0.00 48 1011.2
20260902231051 82 71 0.9 5.2 0.00 0.00 0.00 48 1011.2
20260902230551 82 45 1.7 6.1 0.00 0.00 0.00 48 1011.1
20260902230051 82 100 3.5 6.1 0.00 0.00 0.00 48 1011.2
20260902225549 82 65 2.6 7.0 0.00 0.00 0.00 48 1011.2
20260902225049 82 73 1.7 6.1 0.00 0.00 0.00 48 1011.2
20260902224555 82 112 3.5 6.1 0.00 0.00 0.00 47 1011.1
20260902224049 82 60 3.5 6.1 0.00 0.00 0.00 47 1011.2
20260902223549 82 74 2.6 7.0 0.00 0.00 0.00 47 1011.1
20260902223050 82 93 1.7 5.2 0.00 0.00 0.00 46 1011.1
20260902222547 82 82 2.6 5.2 0.00 0.00 0.00 47 1011.1
20260902222048 82 90 3.5 6.1 0.00 0.00 0.00 47 1011.2
20260902221551 82 61 2.6 6.1 0.00 0.00 0.00 46 1011.3
20260902221045 82 65 2.6 7.0 0.00 0.00 0.00 47 1011.4
20260902220545 82 71 2.6 7.0 0.00 0.00 0.00 46 1011.4
20260902220053 82 92 3.5 7.0 0.00 0.00 0.00 47 1011.4
20260902215544 82 86 1.7 4.3 0.00 0.00 0.00 46 1011.4
20260902215144 82 44 1.7 6.1 0.00 0.00 0.00 45 1011.5
20260902214543 83 110 2.6 8.7 0.00 0.00 0.00 44 1011.5
20260902214043 83 15 3.5 8.7 0.00 0.00 0.00 45 1011.6
20260902213542 83 19 2.6 6.1 0.00 0.00 0.00 44 1011.7
20260902213047 83 86 2.6 7.0 0.00 0.00 0.00 44 1011.8
20260902212542 83 50 2.6 7.0 0.00 0.00 0.00 45 1011.8
20260902212042 83 9 1.7 4.3 0.00 0.00 0.00 44 1011.8
20260902211542 82 78 1.7 6.1 0.00 0.00 0.00 45 1011.8
20260902211040 83 44 2.6 9.6 0.00 0.00 0.00 44 1011.9
20260902210539 83 5 3.5 9.6 0.00 0.00 0.00 44 1011.9
20260902210039 83 35 1.7 5.2 0.00 0.00 0.00 46 1012.0
20260902205538 83 86 2.6 6.1 0.00 0.00 0.00 45 1012.1
20260902205038 83 55 3.5 6.1 0.00 0.00 0.00 45 1012.1
20260902204538 83 82 1.7 7.8 0.00 0.00 0.00 45 1012.1
20260902204038 83 84 3.5 7.8 0.00 0.00 0.00 44 1012.1
20260902203538 84 46 2.6 6.1 0.00 0.00 0.00 45 1012.0
20260902203037 84 141 0.9 4.3 0.00 0.00 0.00 45 1012.1
20260902202537 83 78 1.7 6.1 0.00 0.00 0.00 45 1012.1
20260902202039 83 70 2.6 6.1 0.00 0.00 0.00 45 1012.2
20260902201535 84 330 0.9 4.3 0.00 0.00 0.00 44 1012.3
20260902201036 83 69 1.7 7.0 0.00 0.00 0.00 45 1012.3
20260902200534 83 23 2.6 7.8 0.00 0.00 0.00 44 1012.3
20260902200033 83 53 3.5 7.8 0.00 0.00 0.00 45 1012.3
20260902195532 83 71 4.3 7.8 0.00 0.00 0.00 44 1012.3
20260902195030 83 30 0.9 7.0 0.00 0.00 0.00 44 1012.4
20260902194536 82 11 3.5 7.0 0.00 0.00 0.00 46 1012.5
20260902194029 82 28 1.7 5.2 0.00 0.00 0.00 46 1012.6
20260902193527 82 112 1.7 5.2 0.00 0.00 0.00 48 1012.7
20260902193028 82 51 1.7 6.1 0.00 0.00 0.00 48 1012.7
20260902192526 82 63 2.6 5.2 0.00 0.00 0.00 48 1012.7
20260902192026 81 69 0.9 5.2 0.00 0.00 0.00 47 1012.7
20260902191525 81 108 2.6 5.2 0.00 0.00 0.00 48 1012.8
20260902191028 81 5 0.9 3.5 0.00 0.00 0.00 46 1012.9
20260902190524 81 11 1.7 4.3 0.00 0.00 0.00 49 1012.9
20260902190033 81 65 1.7 7.0 0.00 0.00 0.00 48 1013.1
20260902185523 82 78 2.6 7.0 0.00 0.00 0.00 49 1013.2
20260902185024 81 355 2.6 5.2 0.00 0.00 0.00 51 1013.2
20260902184521 81 101 1.7 5.2 0.00 0.00 0.00 51 1013.1
20260902184020 81 61 1.7 7.8 0.00 0.00 0.00 51 1013.2
20260902183520 82 59 2.6 7.8 0.00 0.00 0.00 50 1013.2
20260902183019 81 331 3.5 6.1 0.00 0.00 0.00 51 1013.2
20260902182521 80 45 1.7 6.1 0.00 0.00 0.00 52 1013.3
20260902182017 80 51 2.6 7.0 0.00 0.00 0.00 52 1013.4
20260902181517 81 101 2.6 8.7 0.00 0.00 0.00 51 1013.4
20260902181016 80 92 4.3 8.7 0.00 0.00 0.00 52 1013.5
20260902180516 80 5 2.6 7.8 0.00 0.00 0.00 53 1013.5
20260902180022 80 340 1.7 7.8 0.00 0.00 0.00 52 1013.5
20260902175515 80 34 2.6 7.8 0.00 0.00 0.00 52 1013.5
20260902175014 80 59 2.6 5.2 0.00 0.00 0.00 51 1013.6
20260902174516 80 346 1.7 7.8 0.00 0.00 0.00 54 1013.5
20260902174012 79 86 3.5 7.8 0.00 0.00 0.00 53 1013.6
20260902173513 80 90 2.6 7.8 0.00 0.00 0.00 55 1013.6
20260902173012 79 92 2.6 7.8 0.00 0.00 0.00 54 1013.7
20260902172515 79 78 3.5 7.8 0.00 0.00 0.00 53 1013.7
20260902172010 80 42 4.3 7.8 0.00 0.00 0.00 54 1013.7
20260902171509 79 28 3.5 7.0 0.00 0.00 0.00 55 1013.7
20260902171008 79 96 2.6 9.6 0.00 0.00 0.00 55 1013.6
20260902170505 78 57 3.5 9.6 0.00 0.00 0.00 57 1013.6
20260902170005 77 61 2.6 6.1 0.00 0.00 0.00 60 1013.7
20260902165505 77 61 2.6 7.0 0.00 0.00 0.00 58 1013.7
20260902165005 77 53 2.6 7.0 0.00 0.00 0.00 57 1013.6
20260902164504 77 16 2.6 5.2 0.00 0.00 0.00 58 1013.7
20260902164004 78 38 3.5 7.0 0.00 0.00 0.00 58 1013.8
20260902163503 77 55 1.7 7.0 0.00 0.00 0.00 60 1013.8
20260902163002 77 61 2.6 5.2 0.00 0.00 0.00 59 1013.7
20260902162501 76 19 2.6 8.7 0.00 0.00 0.00 61 1013.7
20260902162001 76 14 2.6 8.7 0.00 0.00 0.00 60 1013.6
20260902161501 75 26 1.7 6.1 0.00 0.00 0.00 62 1013.7
20260902161001 75 69 2.6 7.0 0.00 0.00 0.00 61 1013.6
20260902160600 76 338 2.6 8.7 0.00 0.00 0.00 59 1013.6
20260902160059 77 33 2.6 8.7 0.00 0.00 0.00 61 1013.6
20260902155558 76 20 1.7 4.3 0.00 0.00 0.00 62 1013.5
20260902155056 75 74 0.9 5.2 0.00 0.00 0.00 63 1013.5
20260902154555 75 64 2.6 4.3 0.00 0.00 0.00 65 1013.6
20260902154054 74 45 0.9 4.3 0.00 0.00 0.00 64 1013.8
20260902153553 74 15 1.7 3.5 0.00 0.00 0.00 64 1013.7
20260902153053 74 61 0.9 3.5 0.00 0.00 0.00 66 1013.6
20260902152550 73 101 0.0 0.0 0.00 0.00 0.00 67 1013.7
20260902152051 72 99 0.0 0.0 0.00 0.00 0.00 68 1013.7
20260902151548 72 94 0.0 0.0 0.00 0.00 0.00 70 1013.8
20260902151046 72 94 0.0 0.0 0.00 0.00 0.00 69 1013.9
20260902150544 71 95 0.0 0.0 0.00 0.00 0.00 69 1014.0
20260902150044 71 95 0.0 0.0 0.00 0.00 0.00 70 1014.1
20260902145543 71 95 0.0 0.0 0.00 0.00 0.00 69 1014.1
20260902145043 71 95 0.0 0.0 0.00 0.00 0.00 71 1014.1
20260902144541 70 95 0.0 0.0 0.00 0.00 0.00 72 1014.1
20260902144040 70 95 0.0 0.0 0.00 0.00 0.00 72 1014.1
20260902143539 69 95 0.0 1.7 0.00 0.00 0.00 73 1014.1
20260902143038 69 95 0.0 2.6 0.00 0.00 0.00 73 1014.1
20260902142537 69 95 0.0 2.6 0.00 0.00 0.00 73 1014.1
20260902142036 68 105 0.9 2.6 0.00 0.00 0.00 73 1014.2
20260902141545 68 110 0.9 2.6 0.00 0.00 0.00 73 1014.2
20260902141035 68 104 0.0 2.6 0.00 0.00 0.00 74 1014.3
20260902140534 68 103 0.0 2.6 0.00 0.00 0.00 74 1014.3
20260902140034 67 104 0.0 2.6 0.00 0.00 0.00 74 1014.3
20260902135533 67 103 0.0 1.7 0.00 0.00 0.00 74 1014.4
20260902135032 67 103 0.9 2.6 0.00 0.00 0.00 74 1014.4
20260902134534 66 103 0.9 2.6 0.00 0.00 0.00 74 1014.5
20260902134031 66 105 0.0 2.6 0.00 0.00 0.00 74 1014.4
20260902133535 66 105 0.9 2.6 0.00 0.00 0.00 74 1014.3
20260902133032 66 81 0.9 3.5 0.00 0.00 0.00 74 1014.3
20260902132532 66 81 0.9 3.5 0.00 0.00 0.00 74 1014.3
20260902132029 66 55 0.9 3.5 0.00 0.00 0.00 74 1014.2
20260902131529 66 49 0.0 2.6 0.00 0.00 0.00 76 1014.2
20260902131029 65 49 0.9 2.6 0.00 0.00 0.00 77 1014.3
20260902130529 65 53 0.9 2.6 0.00 0.00 0.00 77 1014.2
20260902130033 64 19 0.9 2.6 0.00 0.00 0.00 79 1014.3
20260902125528 63 17 0.0 1.7 0.00 0.00 0.00 80 1014.4
20260902125028 63 12 0.0 3.5 0.00 0.00 0.00 81 1014.4
20260902124528 63 12 0.9 3.5 0.00 0.00 0.00 82 1014.2
20260902124026 62 14 0.0 3.5 0.00 0.00 0.00 82 1014.2
20260902123528 62 12 0.0 3.5 0.00 0.00 0.00 83 1014.0
20260902123025 62 12 1.7 2.6 0.00 0.00 0.00 83 1014.2
20260902122523 61 13 0.9 2.6 0.00 0.00 0.00 84 1014.0